FW7461 Weather Reports


time (UTC)temp
C
wind
direction
speed
KPH
gust
KPH
rain 1hr
cm
rain 24hr
cm
rain mn
cm
humidity
%
barometer
mb
20260509211403 22 83 16.1 20.9 0.00 0.00 0.00 85 1017.5
20260509210900 23 99 16.1 16.1 0.00 0.00 0.00 81 1017.3
20260509210357 26 23 4.8 8.0 0.00 0.00 0.00 62 1017.2
20260509205852 26 350 0.0 1.6 0.00 0.00 0.00 61 1017.3
20260509205346 26 27 0.0 0.0 0.00 0.00 0.00 61 1017.3
20260509204844 26 341 3.2 3.2 0.00 0.00 0.00 61 1017.5
20260509204340 26 305 3.2 3.2 0.00 0.00 0.00 61 1017.4
20260509203836 26 303 3.2 3.2 0.00 0.00 0.00 60 1017.3
20260509203333 26 341 4.8 4.8 0.00 0.00 0.00 60 1017.3
20260509202829 26 324 8.0 12.9 0.00 0.00 0.00 60 1017.1
20260509202326 26 343 4.8 8.0 0.00 0.00 0.00 59 1017.0
20260509201825 26 0 8.0 11.3 0.00 0.00 0.00 59 1016.8
20260509201322 26 62 4.8 4.8 0.00 0.00 0.00 59 1016.8
20260509200818 26 316 14.5 16.1 0.00 0.00 0.00 59 1016.6
20260509200314 26 6 6.4 9.7 0.00 0.00 0.00 59 1016.4
20260509195810 26 9 6.4 9.7 0.00 0.00 0.00 58 1016.9
20260509195306 26 15 4.8 8.0 0.00 0.00 0.00 58 1016.4
20260509194805 27 325 4.8 4.8 0.00 0.00 0.00 57 1016.3
20260509194301 27 62 3.2 4.8 0.00 0.00 0.00 57 1016.7
20260509193758 27 36 1.6 1.6 0.00 0.00 0.00 56 1016.2
20260509193258 27 24 1.6 3.2 0.00 0.00 0.00 57 1016.3
20260509192754 27 317 11.3 14.5 0.00 0.00 0.00 57 1016.3
20260509192250 27 301 14.5 20.9 0.00 0.00 0.00 57 1016.2
20260509191745 27 126 4.8 4.8 0.00 0.00 0.00 58 1016.2
20260509191242 26 356 0.0 1.6 0.00 0.00 0.00 60 1016.3
20260509190738 26 343 4.8 8.0 0.00 0.00 0.00 61 1016.1
20260509190235 26 26 4.8 4.8 0.00 0.00 0.00 61 1016.2
20260509185732 26 119 3.2 3.2 0.00 0.00 0.00 61 1016.3
20260509185229 26 341 8.0 11.3 0.00 0.00 0.00 61 1016.3
20260509184726 26 236 9.7 14.5 0.00 0.00 0.00 61 1016.2
20260509184224 26 0 11.3 14.5 0.00 0.00 0.00 61 1016.4
20260509183720 26 2 4.8 8.0 0.00 0.00 0.00 61 1016.3
20260509183215 26 46 12.9 14.5 0.00 0.00 0.00 61 1016.2
20260509182711 26 7 12.9 20.9 0.00 0.00 0.00 61 1016.4
20260509182209 26 319 6.4 9.7 0.00 0.00 0.00 62 1016.1
20260509181706 26 280 11.3 12.9 0.00 0.00 0.00 62 1016.1
20260509181203 26 128 4.8 4.8 0.00 0.00 0.00 62 1016.4
20260509180700 26 291 11.3 17.7 0.00 0.00 0.00 62 1016.4
20260509180156 26 329 11.3 16.1 0.00 0.00 0.00 62 1016.3
20260509175653 26 38 8.0 12.9 0.00 0.00 0.00 62 1016.3
20260509175149 26 353 6.4 8.0 0.00 0.00 0.00 62 1016.3
20260509174645 26 302 4.8 4.8 0.00 0.00 0.00 61 1016.3
20260509174140 26 301 6.4 9.7 0.00 0.00 0.00 62 1016.3
20260509173636 26 322 17.7 17.7 0.00 0.00 0.00 62 1016.4
20260509173132 26 148 4.8 8.0 0.00 0.00 0.00 62 1016.3
20260509172629 26 0 12.9 17.7 0.00 0.00 0.00 62 1016.8
20260509172125 26 349 11.3 14.5 0.00 0.00 0.00 62 1016.7
20260509171621 26 344 19.3 27.4 0.00 0.00 0.00 61 1016.8
20260509171117 26 340 3.2 4.8 0.00 0.00 0.00 61 1016.8
20260509170614 26 307 11.3 16.1 0.00 0.00 0.00 61 1016.7
20260509170110 26 26 4.8 9.7 0.00 0.00 0.00 61 1016.8
20260509165608 26 2 9.7 12.9 0.00 0.00 0.00 61 1016.7
20260509165104 26 306 8.0 11.3 0.00 0.00 0.00 61 1016.7
20260509164600 26 2 14.5 16.1 0.00 0.00 0.00 61 1016.8
20260509164055 26 351 14.5 17.7 0.00 0.00 0.00 62 1017.0
20260509163554 26 354 4.8 8.0 0.00 0.00 0.00 61 1017.1
20260509163049 26 329 11.3 14.5 0.00 0.00 0.00 61 1017.0
20260509162546 26 329 17.7 25.7 0.00 0.00 0.00 61 1017.0
20260509162042 26 301 27.4 32.2 0.00 0.00 0.00 62 1017.1
20260509161538 26 23 4.8 8.0 0.00 0.00 0.00 61 1017.1
20260509161033 26 315 11.3 16.1 0.00 0.00 0.00 62 1017.2
20260509160530 26 337 14.5 17.7 0.00 0.00 0.00 62 1017.1
20260509160025 26 141 4.8 4.8 0.00 0.00 0.00 61 1017.2
20260509155521 26 339 14.5 14.5 0.00 0.00 0.00 62 1016.9
20260509155018 26 313 14.5 22.5 0.00 0.00 0.00 62 1017.2
20260509154514 26 320 9.7 12.9 0.00 0.00 0.00 62 1017.2
20260509154012 26 349 4.8 8.0 0.00 0.00 0.00 62 1017.1
20260509153509 26 346 11.3 14.5 0.00 0.00 0.00 62 1017.2
20260509153006 26 347 9.7 12.9 0.00 0.00 0.00 62 1017.1
20260509152501 26 351 12.9 14.5 0.00 0.00 0.00 62 1017.5
20260509151958 26 68 6.4 9.7 0.00 0.00 0.00 62 1017.5
20260509151454 26 346 4.8 8.0 0.00 0.00 0.00 63 1017.9
20260509150953 25 355 8.0 12.9 0.00 0.00 0.00 64 1017.6
20260509150449 25 91 16.1 20.9 0.00 0.00 0.00 63 1017.9
20260509145942 25 0 9.7 14.5 0.00 0.00 0.00 64 1017.9
20260509145437 25 266 6.4 9.7 0.00 0.00 0.00 64 1018.1
20260509144932 25 6 12.9 16.1 0.00 0.00 0.00 64 1018.1
20260509144430 25 62 4.8 9.7 0.00 0.00 0.00 65 1018.0
20260509143927 25 352 1.6 1.6 0.00 0.00 0.00 66 1018.1
20260509143424 25 198 8.0 9.7 0.00 0.00 0.00 65 1018.7
20260509142920 25 337 11.3 14.5 0.00 0.00 0.00 66 1018.5
20260509142417 25 321 6.4 8.0 0.00 0.00 0.00 66 1018.5
20260509141912 24 63 8.0 9.7 0.00 0.00 0.00 67 1018.4
20260509141410 24 335 4.8 9.7 0.00 0.00 0.00 67 1018.5
20260509140906 24 2 6.4 8.0 0.00 0.00 0.00 67 1018.5
20260509140403 24 343 1.6 1.6 0.00 0.00 0.00 67 1018.6
20260509135901 24 356 4.8 4.8 0.00 0.00 0.00 67 1018.6
20260509135358 24 4 4.8 11.3 0.00 0.00 0.00 67 1018.5
20260509134855 23 328 3.2 4.8 0.00 0.00 0.00 68 1018.6
20260509134353 23 292 3.2 3.2 0.00 0.00 0.00 69 1018.7
20260509133849 23 41 6.4 9.7 0.00 0.00 0.00 70 1018.5
20260509133346 23 300 8.0 9.7 0.00 0.00 0.00 70 1018.6
20260509132845 23 340 9.7 11.3 0.00 0.00 0.00 71 1018.9
20260509132343 23 4 8.0 11.3 0.00 0.00 0.00 70 1018.8
20260509131840 22 317 6.4 9.7 0.00 0.00 0.00 71 1019.0
20260509131336 23 5 12.9 14.5 0.00 0.00 0.00 71 1019.0
20260509130833 23 10 4.8 4.8 0.00 0.00 0.00 71 1019.0
20260509130328 23 353 4.8 8.0 0.00 0.00 0.00 71 1018.9
20260509125825 23 254 4.8 4.8 0.00 0.00 0.00 69 1018.9
20260509125322 23 350 4.8 4.8 0.00 0.00 0.00 69 1019.0
20260509124818 23 351 8.0 9.7 0.00 0.00 0.00 69 1018.7
20260509124315 23 213 3.2 4.8 0.00 0.00 0.00 70 1018.8
20260509123814 23 72 11.3 14.5 0.00 0.00 0.00 70 1018.5
20260509123310 22 316 11.3 14.5 0.00 0.00 0.00 70 1018.5
20260509122806 22 336 3.2 8.0 0.00 0.00 0.00 71 1018.5
20260509122306 23 329 4.8 4.8 0.00 0.00 0.00 70 1018.3
20260509121800 22 2 8.0 11.3 0.00 0.00 0.00 71 1018.7
20260509121257 22 46 8.0 9.7 0.00 0.00 0.00 71 1018.4
20260509120755 22 294 4.8 8.0 0.00 0.00 0.00 70 1018.3
20260509120252 22 3 4.8 8.0 0.00 0.00 0.00 71 1018.3
20260509115751 22 3 6.4 8.0 0.00 0.00 0.00 72 1018.3
20260509115247 22 355 3.2 4.8 0.00 0.00 0.00 71 1018.0
20260509114745 22 355 8.0 9.7 0.00 0.00 0.00 72 1018.2
20260509114244 22 8 4.8 4.8 0.00 0.00 0.00 72 1018.3
20260509113742 22 23 3.2 3.2 0.00 0.00 0.00 72 1018.2
20260509113239 22 22 3.2 4.8 0.00 0.00 0.00 72 1018.0
20260509112736 22 313 4.8 4.8 0.00 0.00 0.00 73 1018.1
20260509112233 22 290 6.4 8.0 0.00 0.00 0.00 73 1017.7
20260509111730 22 278 3.2 4.8 0.00 0.00 0.00 73 1018.1
20260509111226 21 326 14.5 14.5 0.00 0.00 0.00 73 1017.7
20260509110724 21 272 8.0 9.7 0.00 0.00 0.00 73 1018.0
20260509110221 22 282 6.4 11.3 0.00 0.00 0.00 73 1017.2
20260509105719 22 322 9.7 11.3 0.00 0.00 0.00 73 1017.3
20260509105216 22 299 4.8 4.8 0.00 0.00 0.00 73 1017.1
20260509104713 21 13 4.8 8.0 0.00 0.00 0.00 73 1017.0
20260509104210 21 327 3.2 3.2 0.00 0.00 0.00 74 1017.1
20260509103708 21 12 4.8 8.0 0.00 0.00 0.00 74 1017.0
20260509103205 21 16 1.6 1.6 0.00 0.00 0.00 73 1016.9
20260509102703 21 76 3.2 4.8 0.00 0.00 0.00 73 1016.8
20260509102200 22 303 16.1 17.7 0.00 0.00 0.00 72 1016.6
20260509101656 22 269 11.3 12.9 0.00 0.00 0.00 71 1016.4
20260509101152 23 147 9.7 14.5 0.00 0.00 0.00 67 1016.3
20260509100650 23 344 12.9 16.1 0.00 0.00 0.00 67 1016.3
20260509100147 23 322 4.8 4.8 0.00 0.00 0.00 67 1015.9
20260509095643 23 332 11.3 14.5 0.00 0.00 0.00 67 1015.9
20260509095141 23 13 11.3 12.9 0.00 0.00 0.00 67 1015.9
20260509094637 23 326 4.8 8.0 0.00 0.00 0.00 67 1015.5
20260509094134 23 349 4.8 4.8 0.00 0.00 0.00 67 1015.7
20260509093633 23 28 6.4 8.0 0.00 0.00 0.00 67 1015.3
20260509093129 23 97 9.7 17.7 0.00 0.00 0.00 67 1015.5
20260509092627 23 335 14.5 22.5 0.00 0.00 0.00 67 1015.5
20260509092126 23 43 4.8 4.8 0.00 0.00 0.00 67 1015.4
20260509091624 23 14 9.7 12.9 0.00 0.00 0.00 67 1015.6
20260509091119 23 9 4.8 9.7 0.00 0.00 0.00 67 1015.4
20260509090617 23 0 6.4 8.0 0.00 0.00 0.00 68 1015.3
20260509090115 23 26 8.0 14.5 0.00 0.00 0.00 68 1015.3
20260509085612 23 320 14.5 17.7 0.00 0.00 0.00 68 1014.9
20260509085108 23 312 6.4 9.7 0.00 0.00 0.00 67 1014.8
20260509084605 23 328 8.0 24.1 0.00 0.00 0.00 68 1014.9
20260509084102 23 7 8.0 9.7 0.00 0.00 0.00 68 1015.0
20260509083559 23 7 4.8 12.9 0.00 0.00 0.00 68 1014.7
20260509083055 23 306 4.8 9.7 0.00 0.00 0.00 68 1014.4
20260509082553 23 54 4.8 14.5 0.00 0.00 0.00 68 1014.8
20260509082050 23 356 6.4 9.7 0.00 0.00 0.00 68 1014.4
20260509081547 23 41 4.8 12.9 0.00 0.00 0.00 68 1014.7
20260509081044 23 38 12.9 24.1 0.00 0.00 0.00 68 1014.8
20260509080542 23 1 19.3 27.4 0.00 0.00 0.00 68 1014.8
20260509080040 23 329 4.8 11.3 0.00 0.00 0.00 68 1014.8
20260509075537 23 15 17.7 25.7 0.00 0.00 0.00 68 1014.9
20260509075035 23 16 12.9 20.9 0.00 0.00 0.00 68 1014.8
20260509074532 23 342 8.0 9.7 0.00 0.00 0.00 68 1014.8
20260509074028 23 346 6.4 9.7 0.00 0.00 0.00 68 1014.8
20260509073525 23 343 12.9 16.1 0.00 0.00 0.00 68 1014.7
20260509073021 23 356 4.8 4.8 0.00 0.00 0.00 68 1014.8
20260509072518 23 15 14.5 17.7 0.00 0.00 0.00 68 1014.9
20260509072015 23 301 19.3 32.2 0.00 0.00 0.00 68 1014.9
20260509071511 23 358 11.3 14.5 0.00 0.00 0.00 68 1014.7
20260509071009 23 111 12.9 16.1 0.00 0.00 0.00 68 1015.0
20260509070506 23 279 17.7 24.1 0.00 0.00 0.00 68 1014.8
20260509070002 23 359 11.3 14.5 0.00 0.00 0.00 69 1014.9
20260509065457 22 344 4.8 9.7 0.00 0.00 0.00 69 1015.0
20260509064954 22 8 9.7 12.9 0.00 0.00 0.00 69 1014.8
20260509064452 22 323 17.7 25.7 0.00 0.00 0.00 69 1015.3
20260509063950 22 16 9.7 14.5 0.00 0.00 0.00 69 1014.8
20260509063445 22 355 11.3 14.5 0.00 0.00 0.00 70 1014.9
20260509062942 22 0 8.0 11.3 0.00 0.00 0.00 69 1014.9
20260509062439 22 111 8.0 11.3 0.00 0.00 0.00 69 1014.8
20260509061937 23 342 6.4 9.7 0.00 0.00 0.00 69 1015.3
20260509061434 23 20 9.7 12.9 0.00 0.00 0.00 69 1014.9
20260509060931 23 99 4.8 8.0 0.00 0.00 0.00 69 1015.0
20260509060429 23 3 14.5 17.7 0.00 0.00 0.00 69 1015.1
20260509055923 23 3 6.4 11.3 0.00 0.00 0.00 69 1015.0
20260509055419 23 111 12.9 20.9 0.00 0.00 0.00 69 1015.1
20260509054916 23 7 8.0 11.3 0.00 0.00 0.00 69 1015.0
20260509054413 22 359 6.4 8.0 0.00 0.00 0.00 69 1015.3
20260509053911 23 350 4.8 4.8 0.00 0.00 0.00 69 1015.1
20260509053408 23 10 3.2 8.0 0.00 0.00 0.00 69 1015.3
20260509052906 23 13 8.0 9.7 0.00 0.00 0.00 69 1015.1
20260509052403 23 355 4.8 4.8 0.00 0.00 0.00 69 1015.4
20260509051901 23 15 4.8 4.8 0.00 0.00 0.00 69 1015.3
20260509051359 23 138 9.7 12.9 0.00 0.00 0.00 69 1015.3
20260509050855 23 8 11.3 16.1 0.00 0.00 0.00 69 1015.3
20260509050352 23 50 9.7 12.9 0.00 0.00 0.00 70 1015.0
20260509045849 23 8 6.4 9.7 0.00 0.00 0.00 70 1015.5
20260509045346 22 4 12.9 17.7 0.00 0.00 0.00 70 1015.1
20260509044843 22 136 9.7 12.9 0.00 0.00 0.00 70 1014.9
20260509044341 22 2 6.4 9.7 0.00 0.00 0.00 70 1015.0
20260509043837 23 155 6.4 11.3 0.00 0.00 0.00 70 1015.0
20260509043333 22 14 1.6 8.0 0.00 0.00 0.00 70 1015.1
20260509042829 22 104 8.0 12.9 0.00 0.00 0.00 71 1015.1
20260509042326 22 6 11.3 16.1 0.00 0.00 0.00 72 1015.4
20260509041822 22 238 4.8 8.0 0.00 0.00 0.00 72 1015.5
20260509041319 22 340 12.9 17.7 0.00 0.00 0.00 72 1015.6
20260509040818 22 44 6.4 8.0 0.00 0.00 0.00 73 1015.3
20260509040315 22 356 3.2 3.2 0.00 0.00 0.00 73 1015.6
20260509035811 22 5 12.9 16.1 0.00 0.00 0.00 73 1015.5
20260509035309 22 347 6.4 8.0 0.00 0.00 0.00 73 1015.4
20260509034805 22 51 1.6 1.6 0.00 0.00 0.00 74 1015.5
20260509034303 22 154 6.4 9.7 0.00 0.00 0.00 73 1015.1
20260509033759 22 329 6.4 8.0 0.00 0.00 0.00 73 1015.4
20260509033257 22 109 4.8 4.8 0.00 0.00 0.00 73 1015.4
20260509032754 22 359 8.0 11.3 0.00 0.00 0.00 73 1015.4
20260509032251 22 356 4.8 9.7 0.00 0.00 0.00 73 1015.1
20260509031748 22 76 9.7 11.3 0.00 0.00 0.00 73 1015.5
20260509031246 22 339 3.2 4.8 0.00 0.00 0.00 73 1015.1
20260509030743 22 22 4.8 4.8 0.00 0.00 0.00 73 1015.3
20260509030241 22 92 4.8 4.8 0.00 0.00 0.00 73 1015.0
20260509025738 22 30 4.8 9.7 0.00 0.00 0.00 73 1015.3
20260509025233 22 6 4.8 4.8 0.00 0.00 0.00 73 1015.4
20260509024728 22 24 8.0 11.3 0.00 0.00 0.00 73 1015.3
20260509024224 22 90 4.8 9.7 0.00 0.00 0.00 73 1015.4
20260509023722 22 359 4.8 8.0 0.00 0.00 0.00 73 1015.5
20260509023219 22 1 8.0 9.7 0.00 0.00 0.00 73 1015.4
20260509022715 22 355 3.2 8.0 0.00 0.00 0.00 73 1015.3
20260509022213 22 347 4.8 8.0 0.00 0.00 0.00 73 1015.4
20260509021710 22 4 8.0 12.9 0.00 0.00 0.00 72 1015.4
20260509021207 22 30 4.8 8.0 0.00 0.00 0.00 72 1015.6
20260509020705 22 350 4.8 8.0 0.00 0.00 0.00 73 1015.7
20260509020202 22 28 4.8 4.8 0.00 0.00 0.00 73 1015.5
20260509015700 22 347 3.2 3.2 0.00 0.00 0.00 73 1015.5
20260509015158 22 51 6.4 9.7 0.00 0.00 0.00 72 1015.5
20260509014654 22 75 9.7 12.9 0.00 0.00 0.00 73 1015.4
20260509014151 22 45 9.7 14.5 0.00 0.00 0.00 72 1015.4
20260509013648 23 2 6.4 11.3 0.00 0.00 0.00 72 1015.6
20260509013143 23 346 8.0 11.3 0.00 0.00 0.00 72 1015.4
20260509012640 23 69 8.0 11.3 0.00 0.00 0.00 71 1015.4
20260509012137 23 80 4.8 8.0 0.00 0.00 0.00 71 1015.4
20260509011635 23 277 1.6 1.6 0.00 0.00 0.00 71 1015.3
20260509011132 23 21 11.3 14.5 0.00 0.00 0.00 70 1015.5
20260509010630 23 316 3.2 4.8 0.00 0.00 0.00 70 1015.4
20260509010126 23 5 4.8 8.0 0.00 0.00 0.00 70 1015.5
20260509005624 23 61 3.2 3.2 0.00 0.00 0.00 69 1015.5
20260509005119 23 24 8.0 12.9 0.00 0.00 0.00 70 1015.6
20260509004616 23 74 9.7 14.5 0.00 0.00 0.00 69 1015.7
20260509004113 23 21 4.8 9.7 0.00 0.00 0.00 69 1015.4
20260509003611 23 358 8.0 11.3 0.00 0.00 0.00 68 1015.3
20260509003108 24 81 14.5 20.9 0.00 0.00 0.00 67 1015.3
20260509002606 24 97 4.8 8.0 0.00 0.00 0.00 66 1015.4
20260509002103 24 112 6.4 12.9 0.00 0.00 0.00 66 1015.4
20260509001600 25 334 11.3 16.1 0.00 0.00 0.00 65 1015.4
20260509001056 25 12 8.0 14.5 0.00 0.00 0.00 64 1015.1
20260509000555 25 115 6.4 9.7 0.00 0.00 0.00 63 1015.1
20260509000050 25 352 4.8 8.0 0.00 0.00 0.00 61 1015.1
20260508235548 25 79 4.8 8.0 0.00 0.00 0.00 60 1015.0
20260508235044 25 107 8.0 12.9 0.00 0.00 0.00 63 1015.0
20260508234542 25 281 9.7 11.3 0.00 0.00 0.00 62 1015.0
20260508234038 25 357 14.5 20.9 0.00 0.00 0.00 63 1015.1
20260508233538 25 21 4.8 4.8 0.00 0.00 0.00 65 1015.6
20260508233035 25 22 8.0 9.7 0.00 0.00 0.00 63 1015.3
20260508232531 25 4 4.8 4.8 0.00 0.00 0.00 64 1015.5
20260508232029 25 300 1.6 3.2 0.00 0.00 0.00 64 1015.3
20260508231526 25 359 1.6 4.8 0.00 0.00 0.00 64 1015.1
20260508231023 25 102 6.4 8.0 0.00 0.00 0.00 64 1014.9
20260508230520 25 14 1.6 3.2 0.00 0.00 0.00 64 1015.4
20260508230017 25 88 3.2 3.2 0.00 0.00 0.00 65 1015.3
20260508225514 25 23 4.8 4.8 0.00 0.00 0.00 65 1015.4
20260508225010 25 3 1.6 4.8 0.00 0.00 0.00 64 1015.6
20260508224508 25 9 4.8 4.8 0.00 0.00 0.00 63 1015.5
20260508224005 25 31 3.2 3.2 0.00 0.00 0.00 64 1015.5
20260508223503 25 0 1.6 1.6 0.00 0.00 0.00 64 1015.4
20260508223000 25 1 0.0 0.0 0.00 0.00 0.00 64 1015.3
20260508222458 25 11 1.6 3.2 0.00 0.00 0.00 64 1015.4
20260508221953 26 19 3.2 4.8 0.00 0.00 0.00 63 1015.4
20260508221450 26 340 3.2 3.2 0.00 0.00 0.00 62 1015.3
20260508220946 26 10 1.6 3.2 0.00 0.00 0.00 63 1015.0
20260508220443 26 349 1.6 1.6 0.00 0.00 0.00 62 1015.1
20260508215939 26 358 1.6 1.6 0.00 0.00 0.00 62 1015.3
20260508215436 26 20 1.6 1.6 0.00 0.00 0.00 62 1014.9
20260508214932 26 332 1.6 1.6 0.00 0.00 0.00 62 1015.0
20260508214431 26 80 1.6 1.6 0.00 0.00 0.00 62 1015.1
20260508213926 26 89 3.2 3.2 0.00 0.00 0.00 61 1015.0
20260508213424 26 21 4.8 4.8 0.00 0.00 0.00 61 1014.9
20260508212919 26 2 1.6 1.6 0.00 0.00 0.00 60 1014.9
20260508212416 26 2 4.8 4.8 0.00 0.00 0.00 60 1015.1
20260508211912 26 15 1.6 3.2 0.00 0.00 0.00 60 1014.7